Time,TemperatureF,DewpointF,PressureIn,WindDirection,WindDirectionDegrees,WindSpeedMPH,WindSpeedGustMPH,Humidity,HourlyPrecipIn,Conditions,Clouds,dailyrainin,SoftwareType,DateUTC
2013-04-01 00:05:00,48.0,47.0,29.78,NE,44,0.0,2.0,97,0.04,,,0.00,weatherlink.com 1.10,2013-04-01 04:05:00,
2013-04-01 00:20:00,47.9,47.0,29.78,NNE,24,0.0,2.0,97,0.04,,,0.00,weatherlink.com 1.10,2013-04-01 04:20:00,
2013-04-01 00:35:00,47.8,47.0,29.78,ENE,57,0.0,2.0,97,0.00,,,0.00,weatherlink.com 1.10,2013-04-01 04:35:00,
2013-04-01 00:50:00,47.3,47.0,29.78,ENE,57,0.0,2.0,98,0.01,,,0.01,weatherlink.com 1.10,2013-04-01 04:50:00,
2013-04-01 01:05:00,47.1,47.0,29.78,ENE,57,1.0,2.0,98,0.01,,,0.01,weatherlink.com 1.10,2013-04-01 05:05:00,
2013-04-01 01:20:00,46.7,46.0,29.78,ENE,57,0.0,3.0,98,0.01,,,0.01,weatherlink.com 1.10,2013-04-01 05:20:00,
2013-04-01 01:35:00,46.6,46.0,29.78,NE,54,0.0,1.0,98,0.01,,,0.01,weatherlink.com 1.10,2013-04-01 05:35:00,
2013-04-01 01:50:00,46.3,46.0,29.78,NE,56,0.0,2.0,98,0.00,,,0.01,weatherlink.com 1.10,2013-04-01 05:50:00,
2013-04-01 02:05:00,45.9,45.0,29.78,NE,56,0.0,3.0,97,0.00,,,0.01,weatherlink.com 1.10,2013-04-01 06:05:00,
2013-04-01 02:20:00,45.6,45.0,29.77,NE,56,0.0,3.0,96,0.00,,,0.01,weatherlink.com 1.10,2013-04-01 06:20:00,
2013-04-01 02:36:00,45.5,45.0,29.77,East,79,0.0,4.0,96,0.00,,,0.01,weatherlink.com 1.10,2013-04-01 06:36:00,
2013-04-01 02:51:00,45.3,44.0,29.78,East,79,1.0,2.0,96,0.00,,,0.01,weatherlink.com 1.10,2013-04-01 06:51:00,
2013-04-01 03:06:00,45.2,44.0,29.77,NE,45,0.0,3.0,96,0.00,,,0.01,weatherlink.com 1.10,2013-04-01 07:06:00,
2013-04-01 03:21:00,44.9,44.0,29.77,NE,45,1.0,4.0,96,0.00,,,0.01,weatherlink.com 1.10,2013-04-01 07:21:00,
2013-04-01 03:36:00,44.9,43.0,29.77,NNE,32,4.0,4.0,93,0.00,,,0.01,weatherlink.com 1.10,2013-04-01 07:36:00,
2013-04-01 03:51:00,45.0,43.0,29.77,North,8,0.0,3.0,91,0.00,,,0.01,weatherlink.com 1.10,2013-04-01 07:51:00,
2013-04-01 04:06:00,44.7,43.0,29.77,North,359,0.0,4.0,92,0.00,,,0.01,weatherlink.com 1.10,2013-04-01 08:06:00,
2013-04-01 04:36:00,43.6,41.0,29.77,NE,37,1.0,4.0,91,0.01,,,0.02,weatherlink.com 1.10,2013-04-01 08:36:00,
2013-04-01 05:36:00,41.7,39.0,29.78,NNE,19,5.0,5.0,91,0.00,,,0.02,weatherlink.com 1.10,2013-04-01 09:36:00,
2013-04-01 05:51:00,41.5,37.0,29.79,NNE,17,4.0,5.0,83,0.00,,,0.02,weatherlink.com 1.10,2013-04-01 09:51:00,
2013-04-01 06:06:00,41.1,35.0,29.79,North,10,4.0,5.0,78,0.00,,,0.02,weatherlink.com 1.10,2013-04-01 10:06:00,
2013-04-01 06:36:00,40.6,32.0,29.79,NNE,23,4.0,5.0,70,0.00,,,0.02,weatherlink.com 1.10,2013-04-01 10:36:00,
2013-04-01 07:06:00,40.7,31.0,29.80,NE,34,5.0,5.0,68,0.00,,,0.02,weatherlink.com 1.10,2013-04-01 11:06:00,
2013-04-01 07:21:00,40.6,31.0,29.81,NNE,18,4.0,6.0,69,0.00,,,0.02,weatherlink.com 1.10,2013-04-01 11:21:00,
2013-04-01 07:36:00,40.8,31.0,29.82,NNE,21,4.0,6.0,69,0.00,,,0.02,weatherlink.com 1.10,2013-04-01 11:36:00,
2013-04-01 07:51:00,40.7,31.0,29.82,NNE,31,5.0,5.0,69,0.00,,,0.02,weatherlink.com 1.10,2013-04-01 11:51:00,
2013-04-01 08:06:00,41.0,32.0,29.83,NNE,20,3.0,6.0,69,0.00,,,0.02,weatherlink.com 1.10,2013-04-01 12:06:00,
2013-04-01 08:21:00,41.0,32.0,29.83,NNE,29,4.0,6.0,70,0.00,,,0.02,weatherlink.com 1.10,2013-04-01 12:21:00,
2013-04-01 08:36:00,41.4,32.0,29.84,NNE,15,4.0,5.0,68,0.00,,,0.02,weatherlink.com 1.10,2013-04-01 12:36:00,
2013-04-01 08:52:00,42.4,31.0,29.84,NE,34,4.0,5.0,65,0.00,,,0.02,weatherlink.com 1.10,2013-04-01 12:52:00,
2013-04-01 09:07:00,42.8,31.0,29.84,NE,39,4.0,5.0,64,0.00,,,0.02,weatherlink.com 1.10,2013-04-01 13:07:00,
2013-04-01 09:22:00,43.5,33.0,29.84,NNE,29,3.0,5.0,67,0.00,,,0.02,weatherlink.com 1.10,2013-04-01 13:22:00,
2013-04-01 09:37:00,45.1,33.0,29.84,ENE,58,2.0,4.0,63,0.00,,,0.02,weatherlink.com 1.10,2013-04-01 13:37:00,
2013-04-01 09:52:00,47.9,34.0,29.85,ENE,70,1.0,8.0,60,0.00,,,0.02,weatherlink.com 1.10,2013-04-01 13:52:00,
2013-04-01 10:08:00,49.3,34.0,29.85,East,82,2.0,6.0,56,0.00,,,0.02,weatherlink.com 1.10,2013-04-01 14:08:00,
2013-04-01 10:22:00,49.6,33.0,29.85,ENE,70,4.0,5.0,54,0.00,,,0.02,weatherlink.com 1.10,2013-04-01 14:22:00,
2013-04-01 10:37:00,49.6,34.0,29.85,SW,224,4.0,6.0,56,0.00,,,0.02,weatherlink.com 1.10,2013-04-01 14:37:00,
2013-04-01 10:52:00,49.5,34.0,29.86,SSW,196,4.0,8.0,56,0.00,,,0.02,weatherlink.com 1.10,2013-04-01 14:52:00,
2013-04-01 11:07:00,50.2,34.0,29.86,South,189,5.0,9.0,54,0.00,,,0.02,weatherlink.com 1.10,2013-04-01 15:07:00,
2013-04-01 11:22:00,50.1,34.0,29.85,SSW,198,7.0,11.0,54,0.00,,,0.02,weatherlink.com 1.10,2013-04-01 15:22:00,
2013-04-01 11:37:00,51.0,34.0,29.86,SSE,166,1.0,8.0,52,0.00,,,0.02,weatherlink.com 1.10,2013-04-01 15:37:00,
2013-04-01 11:52:00,51.3,34.0,29.86,ENE,69,4.0,7.0,53,0.00,,,0.02,weatherlink.com 1.10,2013-04-01 15:52:00,
2013-04-01 12:07:00,51.6,35.0,29.86,SW,214,0.0,10.0,53,0.00,,,0.02,weatherlink.com 1.10,2013-04-01 16:07:00,
2013-04-01 12:22:00,51.9,36.0,29.86,ENE,62,2.0,7.0,54,0.00,,,0.02,weatherlink.com 1.10,2013-04-01 16:22:00,
2013-04-01 12:37:00,52.8,34.0,29.86,WNW,302,3.0,11.0,50,0.00,,,0.02,weatherlink.com 1.10,2013-04-01 16:37:00,
2013-04-01 12:52:00,51.7,35.0,29.86,SSW,205,1.0,12.0,53,0.00,,,0.02,weatherlink.com 1.10,2013-04-01 16:52:00,
2013-04-01 13:07:00,52.0,35.0,29.86,SSW,197,3.0,15.0,53,0.00,,,0.02,weatherlink.com 1.10,2013-04-01 17:07:00,
2013-04-01 13:22:00,52.0,33.0,29.87,East,91,1.0,8.0,48,0.00,,,0.02,weatherlink.com 1.10,2013-04-01 17:22:00,
2013-04-01 13:37:00,51.5,35.0,29.86,SSE,165,1.0,17.0,53,0.00,,,0.02,weatherlink.com 1.10,2013-04-01 17:37:00,
2013-04-01 13:52:00,51.6,33.0,29.87,North,6,2.0,8.0,50,0.00,,,0.02,weatherlink.com 1.10,2013-04-01 17:52:00,
2013-04-01 14:07:00,51.4,35.0,29.86,East,84,1.0,6.0,53,0.00,,,0.02,weatherlink.com 1.10,2013-04-01 18:07:00,
2013-04-01 14:22:00,50.8,35.0,29.87,SSE,165,4.0,9.0,55,0.00,,,0.02,weatherlink.com 1.10,2013-04-01 18:22:00,
2013-04-01 14:37:00,50.3,34.0,29.86,SSE,161,4.0,14.0,55,0.00,,,0.02,weatherlink.com 1.10,2013-04-01 18:37:00,
2013-04-01 14:52:00,50.9,35.0,29.85,NNE,26,5.0,11.0,55,0.00,,,0.02,weatherlink.com 1.10,2013-04-01 18:52:00,
2013-04-01 15:07:00,51.0,36.0,29.85,SSE,157,8.0,15.0,57,0.00,,,0.02,weatherlink.com 1.10,2013-04-01 19:07:00,
2013-04-01 15:22:00,50.9,35.0,29.85,SSW,196,7.0,14.0,54,0.00,,,0.02,weatherlink.com 1.10,2013-04-01 19:22:00,
2013-04-01 15:52:00,51.3,35.0,29.85,NNW,347,0.0,8.0,55,0.00,,,0.02,weatherlink.com 1.10,2013-04-01 19:52:00,
2013-04-01 16:07:00,51.2,34.0,29.84,SSW,203,6.0,12.0,53,0.00,,,0.02,weatherlink.com 1.10,2013-04-01 20:07:00,
2013-04-01 16:22:00,50.8,35.0,29.85,SSE,155,0.0,12.0,55,0.00,,,0.02,weatherlink.com 1.10,2013-04-01 20:22:00,
2013-04-01 16:37:00,50.1,36.0,29.84,South,174,4.0,14.0,58,0.00,,,0.02,weatherlink.com 1.10,2013-04-01 20:37:00,
2013-04-01 16:52:00,50.0,35.0,29.85,South,181,6.0,12.0,57,0.00,,,0.02,weatherlink.com 1.10,2013-04-01 20:52:00,
2013-04-01 17:07:00,49.9,36.0,29.85,South,186,2.0,7.0,59,0.00,,,0.02,weatherlink.com 1.10,2013-04-01 21:07:00,
2013-04-01 17:22:00,49.6,36.0,29.84,South,177,3.0,8.0,59,0.00,,,0.02,weatherlink.com 1.10,2013-04-01 21:22:00,
2013-04-01 17:37:00,49.4,36.0,29.84,South,191,6.0,12.0,60,0.00,,,0.02,weatherlink.com 1.10,2013-04-01 21:37:00,
2013-04-01 17:52:00,49.5,36.0,29.84,NNW,330,1.0,17.0,59,0.00,,,0.02,weatherlink.com 1.10,2013-04-01 21:52:00,
2013-04-01 18:07:00,49.6,36.0,29.84,South,171,4.0,12.0,59,0.00,,,0.02,weatherlink.com 1.10,2013-04-01 22:07:00,
2013-04-01 18:22:00,49.6,34.0,29.84,South,169,4.0,11.0,56,0.00,,,0.02,weatherlink.com 1.10,2013-04-01 22:22:00,
2013-04-01 18:37:00,49.4,34.0,29.85,WSW,244,4.0,15.0,56,0.00,,,0.02,weatherlink.com 1.10,2013-04-01 22:37:00,
2013-04-01 18:52:00,49.3,34.0,29.85,South,189,5.0,10.0,56,0.00,,,0.02,weatherlink.com 1.10,2013-04-01 22:52:00,
2013-04-01 19:07:00,49.0,34.0,29.86,SW,226,4.0,11.0,57,0.00,,,0.02,weatherlink.com 1.10,2013-04-01 23:07:00,
2013-04-01 19:22:00,48.6,34.0,29.85,South,184,2.0,9.0,57,0.00,,,0.02,weatherlink.com 1.10,2013-04-01 23:22:00,
2013-04-01 19:37:00,48.0,33.0,29.86,SSW,200,3.0,12.0,57,0.00,,,0.02,weatherlink.com 1.10,2013-04-01 23:37:00,
2013-04-01 19:52:00,47.7,33.0,29.86,SSW,195,14.0,14.0,57,0.00,,,0.02,weatherlink.com 1.10,2013-04-01 23:52:00,
2013-04-01 20:08:00,47.3,33.0,29.87,NE,44,3.0,8.0,59,0.00,,,0.02,weatherlink.com 1.10,2013-04-02 00:08:00,
2013-04-01 20:22:00,47.1,33.0,29.87,North,4,4.0,11.0,58,0.00,,,0.02,weatherlink.com 1.10,2013-04-02 00:22:00,
2013-04-01 20:37:00,46.8,32.0,29.87,NE,53,0.0,10.0,57,0.00,,,0.02,weatherlink.com 1.10,2013-04-02 00:37:00,
2013-04-01 20:52:00,46.4,31.0,29.87,SSW,198,2.0,13.0,56,0.00,,,0.02,weatherlink.com 1.10,2013-04-02 00:52:00,
2013-04-01 21:07:00,46.1,31.0,29.87,South,181,3.0,14.0,56,0.00,,,0.02,weatherlink.com 1.10,2013-04-02 01:07:00,
2013-04-01 21:22:00,45.8,32.0,29.87,SW,229,4.0,12.0,58,0.00,,,0.02,weatherlink.com 1.10,2013-04-02 01:22:00,
2013-04-01 21:37:00,45.4,32.0,29.87,SSW,193,4.0,10.0,59,0.00,,,0.02,weatherlink.com 1.10,2013-04-02 01:37:00,
2013-04-01 21:52:00,45.2,31.0,29.88,SSE,152,4.0,10.0,59,0.00,,,0.02,weatherlink.com 1.10,2013-04-02 01:52:00,
2013-04-01 22:08:00,45.0,31.0,29.88,SSW,198,6.0,11.0,59,0.00,,,0.02,weatherlink.com 1.10,2013-04-02 02:08:00,
2013-04-01 22:23:00,44.9,32.0,29.88,South,170,4.0,13.0,60,0.00,,,0.02,weatherlink.com 1.10,2013-04-02 02:23:00,
2013-04-01 22:38:00,44.5,32.0,29.88,SSW,202,6.0,10.0,61,0.00,,,0.02,weatherlink.com 1.10,2013-04-02 02:38:00,
2013-04-01 22:53:00,44.2,32.0,29.88,SSW,211,6.0,10.0,62,0.00,,,0.02,weatherlink.com 1.10,2013-04-02 02:53:00,
2013-04-01 23:08:00,43.9,31.0,29.89,SSE,161,6.0,18.0,62,0.00,,,0.02,weatherlink.com 1.10,2013-04-02 03:08:00,
2013-04-01 23:24:00,43.4,31.0,29.89,SSW,212,3.0,14.0,62,0.00,,,0.02,weatherlink.com 1.10,2013-04-02 03:24:00,
2013-04-01 23:38:00,43.0,31.0,29.89,South,187,7.0,15.0,62,0.00,,,0.02,weatherlink.com 1.10,2013-04-02 03:38:00,
2013-04-01 23:53:00,42.5,30.0,29.89,South,184,7.0,11.0,62,0.00,,,0.02,weatherlink.com 1.10,2013-04-02 03:53:00,